Regional Weather Roundup
Issued by NWS

Home | Current Version | Previous Version | Graphics & Text | Print | Product List | Glossary On
Versions: 1 2 3 4 5 6 7 8 9 10 11 12 13 14 15 16 17 18 19 20 21 22 23 24 25 26 27 28 29 30 31 32 33 34 35 36 37 38 39 40 41 42 43 44 45 46 47 48 49 50
000
ASUS43 KMPX 252001
RWRMN
WEATHER ROUNDUP FOR MINNESOTA
NATIONAL WEATHER SERVICE TWIN CITIES/CHANHASSEN MN
200 PM CST SUN FEB 25 2018


NOTE: "FAIR" INDICATES FEW OR NO CLOUDS BELOW 12,000 FEET WITH NO
SIGNIFICANT WEATHER AND/OR OBSTRUCTIONS TO VISIBILITY. N/A MEANS
CURRENT SKY AND/OR WEATHER CONDITIONS ARE NOT AVAILABLE.

MNZ060>063-068>070-252100-
   Twin Cities Metro

CITY           SKY/WX    TMP DP  RH WIND       PRES   REMARKS
TWIN CITIES    CLOUDY    26  19  74 W13       29.79R WCI  15
ST PAUL        CLOUDY    26  17  68 W10G20    29.80R WCI  16
CRYSTAL        CLOUDY    25  17  72 SW15      29.77R WCI  13
BLAINE         CLOUDY    28  19  69 SW17G25   29.76R WCI  16
LAKEVILLE      PTSUNNY   27  19  74 W14G21    29.79R WCI  15
EDEN PRAIRIE   CLOUDY    26  18  71 W15G23    29.78R WCI  14
SOUTH ST PAUL  CLOUDY    27  18  67 W15       29.78R WCI  16
LAKE ELMO      FAIR      28  19  69 W21G26    29.76R HAZE    WCI  15
$$
MNZ001>005-007-008-013>017-022>024-027-028-252100-
   Northwest Minnesota

CITY           SKY/WX    TMP DP  RH WIND       PRES   REMARKS
BEMIDJI        CLOUDY    23  18  79 W17G24    29.58R WCI  10
HALLOCK        FAIR      25  18  74 NW9       29.60R WCI  15
ROSEAU         LGT SNOW  21  16  79 W15       29.54R WCI   8
WARROAD        FAIR      21  14  73 SW14G23   29.53R WCI   8
THIEF RVR FALL FLURRIES  22  16  78 W16       29.60R WCI   8
CROOKSTON      FAIR      27  21  80 NW10      29.64R WCI  17
FOSSTON        MIX PCPN  25  18  74 SW10      29.61R WCI  15
DETROIT LAKES  FAIR      28  21  74 W10       29.66R WCI  19
MOORHEAD       FAIR      27  19  74 W16       29.69R WCI  14
PARK RAPIDS    CLOUDY    25  20  81 W17       29.61R WCI  12
MAHNOMEN       CLOUDY    25  20  80 W16       29.63R WCI  12
$$
MNZ006-009>011-018-025>026-252100-
   North Central Minnesota

CITY           SKY/WX    TMP DP  RH WIND       PRES   REMARKS
BAUDETTE       FAIR      26  16  65 W17G23    29.50R WCI  13
FLAG ISLAND    CLOUDY    25  18  74 W13       29.49R WCI  13
INTL FALLS     CLOUDY    27  20  75 W15G21    29.49R WCI  15
WASKISH        CLOUDY    21  16  79 SW15      29.55R WCI   8
LONGVILLE      PTSUNNY   27  18  69 SW12G17   29.60R WCI  16
GRAND RAPIDS   FAIR      30  17  58 W9G20     29.58R WCI  22
CRANE LAKE     CLOUDY    25  19  80 W8        29.50R WCI  16
ORR            CLOUDY    25  16  68 SW10G20   29.48R WCI  15
COOK           LGT SNOW  25  19  80 W16G22    29.51R WCI  12
WALKER         CLOUDY    26  17  68 W15G24    29.58R WCI  13
$$
MNZ012-019>021-037-252100-
   Northeast Minnesota

CITY           SKY/WX    TMP DP  RH WIND       PRES   REMARKS
DULUTH         CLOUDY    26  18  71 W23G32    29.54R WCI  11
ELY            LGT SNOW  25  19  80 W15G25    29.46R WCI  12
HIBBING        MIX PCPN  23  16  74 W15G24    29.53R WCI  10
EVELETH        MIX PCPN  25  19  80 W13G24    29.52R WCI  13
DULUTH HARBOR  PTSUNNY   28  21  74 W22G28    29.60R WCI  15
TWO HARBORS    FLURRIES  30  21  69 W13G25    29.51R WCI  20
GRAND MARAIS     N/A     31  21  66 W18G30    29.44R WCI  19
G MARAIS ARPRT LGT SNOW  25  16  68 W13G23    29.37R WCI  13
$$
MNZ029>031-032-039>041-046>048-054>057-064-252100-
   West Central Minnesota

CITY           SKY/WX    TMP DP  RH WIND       PRES   REMARKS
FERGUS FALLS   FAIR      27  19  74 W15       29.70R WCI  15
WHEATON        SUNNY     28  19  69 W15       29.76R WCI  17
MORRIS         SUNNY     28  19  69 W16       29.74R WCI  17
ALEXANDRIA     FAIR      27  19  72 W16G25    29.71R WCI  15
ELBOW LAKE     FAIR      26  20  78 W15       29.72S WCI  14
WADENA         CLOUDY    25  19  80 W16G22    29.65R WCI  12
GLENWOOD       FLURRIES  28  21  74 W21       29.72R WCI  15
APPLETON       SUNNY     30  19  64 W15       29.76S HAZE    WCI  19
BENSON         SUNNY     30  19  64 NW14      29.78R WCI  20
MADISON        SUNNY     32  23  69 W16G24    29.78S WCI  21
WILLMAR        FAIR      27  21  80 SW13      29.80R WCI  16
$$
MNZ033>034-036-042>043-049>051-058-059-252100-
   Central Minnesota

CITY           SKY/WX    TMP DP  RH WIND       PRES   REMARKS
ST CLOUD       CLOUDY    26  20  77 W17G23    29.72R WCI  13
SAUK CENTRE    CLOUDY    27  20  76 W21G26    29.72R WCI  13
PAYNESVILLE    PTSUNNY   28  22  80 W17G24    29.74R WCI  15
AITKIN         FAIR      25  14  63 W9G17     29.62R WCI  15
PINE RIVER     CLOUDY    25  18  74 W7G16     29.67R WCI  17
BRAINERD       CLOUDY    26  17  68 W22G28    29.65R WCI  12
STAPLES        CLOUDY    25  19  80 W18       29.66R WCI  11
LONG PRAIRIE   CLOUDY    28  21  74 SW15G21   29.70R WCI  17
LITTLE FALLS   CLOUDY    28  16  59 W13G20    29.70R WCI  18
LITCHFIELD     FAIR      28  21  74 W9G18     29.77R WCI  20
BUFFALO        CLOUDY    28  20  72 W13       29.77R WCI  17
MAPLE LAKE     CLOUDY    29  22  74 W12       29.76R WCI  20
HUTCHINSON     FAIR      29  22  75 SW18      29.79R WCI  16
$$
MNZ037-044-045-052-053-252100-
   East Central Minnesota

CITY           SKY/WX    TMP DP  RH WIND       PRES   REMARKS
PRINCETON      CLOUDY    28  19  69 SW13G20   29.73R WCI  18
CAMBRIDGE        N/A     28  18  64 W15G23    29.73R WCI  17
RUSH CITY      CLOUDY    26  17  71 W14G28    29.72R WCI  14
MOOSE LAKE     FAIR      28  16  59 W14G25    29.61R WCI  17
HINCKLEY       FAIR      27  18  69 SW21G26   29.68R WCI  13
CLOQUET        CLOUDY    27  16  63 SW16G25   29.57R WCI  14
MCGREGOR       PTSUNNY   28  18  64 W14G24    29.63R WCI  17
$$
MNZ071>073-080-081-089-090-097-098-252100-
   Southwest Minnesota

CITY           SKY/WX    TMP DP  RH WIND       PRES   REMARKS
MONTEVIDEO     SUNNY     36  21  55 NW13      29.79R
GRANITE FALLS  SUNNY     30  23  74 W14       29.81S WCI  20
CANBY          SUNNY     31  21  66 SW14G23   29.82R WCI  20
MARSHALL       SUNNY     30  21  69 W17       29.83R WCI  18
REDWOOD FALLS  SUNNY     30  22  72 W15       29.81R WCI  19
OLIVIA         SUNNY     30  23  74 W10G22    29.79R WCI  21
PIPESTONE      SUNNY     25  18  74 W16       29.84R WCI  12
WORTHINGTON    SUNNY     26  20  77 SW25G31   29.85R WCI  11
JACKSON        SUNNY     27  21  80 SW14      29.86R WCI  15
TRACY          SUNNY     29  24  78 W17G24    29.82R WCI  18
SLAYTON        SUNNY     26  20  80 W21       29.83R WCI  11
$$
MNZ065>067-074>077-082>085-091>093-252100-
   South Central Minnesota

CITY           SKY/WX    TMP DP  RH WIND       PRES   REMARKS
MANKATO        FAIR      27  21  78 W16       29.83R WCI  15
NEW ULM        SUNNY     28  21  74 W18       29.82R WCI  16
ST JAMES       SUNNY     27  21  80 SW18      29.85R WCI  13
FAIRMONT       SUNNY     26  20  77 W18       29.87R WCI  13
GLENCOE        FAIR      28  22  76 SW8       29.79R WCI  20
FARIBAULT      FAIR      28  19  69 SW12G20   29.82R WCI  18
OWATONNA       FAIR      25  18  74 SW16      29.82R WCI  12
WASECA         FAIR      25  19  80 SW17      29.84R WCI  11
ALBERT LEA     FAIR      25  18  74 W9G17     29.85R WCI  15
$$
MNZ078>079-086>088-094>096-252100-
   Southeast Minnesota

CITY           SKY/WX    TMP DP  RH WIND       PRES   REMARKS
ROCHESTER      FAIR      24  18  77 SW14      29.82R WCI  12
RED WING       CLOUDY    28  16  59 W14G22    29.79R WCI  17
STANTON        CLOUDY    28  19  68 W14       29.79R WCI  17
DODGE CENTER   FAIR      23  18  80 SW17      29.81R WCI   9
WINONA         FAIR      32  19  59 W13G21    29.82R WCI  22
AUSTIN         FAIR      27  18  69 SW14      29.84R WCI  15
PRESTON        FAIR      26  19  75 W16G22    29.84R WCI  14
$$
ABBREVIATIONS USED IN REMARKS
   TC - TEMPERATURES IN CELSIUS
  WCI - WIND CHILL INDEX
   HX - HEAT INDEX
  VSB - VISIBILITY
$$




USA.gov is the U.S. government's official web portal to all federal, state and local government web resources and services.